FW5328 Weather Reports


time (UTC)temp
C
wind
direction
speed
KPH
gust
KPH
rain 1hr
cm
rain 24hr
cm
rain mn
cm
humidity
%
barometer
mb
20260506015058 10 296 1.6 4.8 0.00 0.00 0.00 49 1009.8
20260506014558 10 312 1.6 4.8 0.00 0.00 0.00 49 1009.6
20260506014100 10 312 1.6 3.2 0.00 0.00 0.00 48 1009.7
20260506013557 10 285 1.6 4.8 0.00 0.00 0.00 48 1009.5
20260506013059 10 284 1.6 6.4 0.00 0.00 0.00 47 1009.4
20260506012557 10 283 1.6 6.4 0.00 0.00 0.00 48 1009.4
20260506012059 10 275 1.6 6.4 0.00 0.00 0.00 47 1009.4
20260506011601 10 269 3.2 6.4 0.00 0.00 0.00 47 1009.2
20260506011057 10 286 1.6 4.8 0.00 0.00 0.00 47 1009.2
20260506010557 10 0 1.6 4.8 0.00 0.00 0.00 46 1009.0
20260506010105 10 0 1.6 4.8 0.00 0.00 0.00 45 1008.9
20260506005557 11 280 1.6 4.8 0.00 0.00 0.00 44 1008.9
20260506005057 11 279 1.6 9.7 0.00 0.00 0.00 44 1008.8
20260506004607 11 275 3.2 9.7 0.00 0.00 0.00 44 1008.9
20260506004057 11 277 3.2 11.3 0.00 0.00 0.00 44 1008.8
20260506003558 11 271 3.2 11.3 0.00 0.00 0.00 43 1008.8
20260506003059 11 279 3.2 9.7 0.00 0.00 0.00 42 1008.8
20260506002559 11 266 3.2 9.7 0.00 0.00 0.00 42 1008.8
20260506002059 11 266 3.2 12.9 0.00 0.00 0.00 41 1008.8
20260506001608 11 279 3.2 12.9 0.00 0.00 0.00 41 1008.7
20260506001059 11 264 4.8 12.9 0.00 0.00 0.00 40 1008.7
20260506000601 12 267 3.2 11.3 0.00 0.00 0.00 40 1008.8
20260506000126 12 273 3.2 11.3 0.00 0.00 0.00 40 1008.7
20260505235601 12 289 3.2 16.1 0.00 0.00 0.00 40 1008.6
20260505235059 12 278 4.8 17.7 0.00 0.00 0.00 40 1008.7
20260505234617 12 273 6.4 17.7 0.00 0.00 0.00 39 1008.7
20260505234058 12 310 8.0 17.7 0.00 0.00 0.00 39 1008.8
20260505233600 12 277 4.8 24.1 0.00 0.00 0.00 39 1008.8
20260505233058 12 297 8.0 24.1 0.00 0.00 0.00 38 1008.9
20260505232559 12 269 12.9 25.7 0.00 0.00 0.00 37 1008.9
20260505232059 12 284 6.4 27.4 0.00 0.00 0.00 37 1008.8
20260505231601 12 275 11.3 27.4 0.00 0.00 0.00 37 1008.8
20260505231059 12 277 11.3 22.5 0.00 0.00 0.00 37 1008.8
20260505230559 12 290 8.0 20.9 0.00 0.00 0.00 37 1008.8
20260505230104 12 288 8.0 24.1 0.00 0.00 0.00 37 1008.9
20260505225602 12 298 8.0 24.1 0.00 0.00 0.00 37 1009.0
20260505225059 12 304 9.7 19.3 0.00 0.00 0.00 36 1009.0
20260505224603 12 311 11.3 24.1 0.00 0.00 0.00 37 1009.0
20260505224102 13 277 8.0 24.1 0.00 0.00 0.00 36 1008.9
20260505223559 13 242 6.4 20.9 0.00 0.00 0.00 36 1008.7
20260505223105 13 269 9.7 20.9 0.00 0.00 0.00 36 1008.8
20260505222559 13 293 9.7 22.5 0.00 0.00 0.00 37 1008.8
20260505222059 13 281 9.7 22.5 0.00 0.00 0.00 36 1008.9
20260505221602 13 237 9.7 22.5 0.00 0.00 0.00 37 1008.9
20260505221059 13 292 9.7 24.1 0.00 0.00 0.00 36 1008.9
20260505220559 13 317 9.7 24.1 0.00 0.00 0.00 36 1008.9
20260505220107 13 273 6.4 25.7 0.00 0.00 0.00 38 1008.9
20260505215603 13 267 6.4 25.7 0.00 0.00 0.00 37 1009.0
20260505215059 13 276 9.7 22.5 0.00 0.00 0.00 37 1009.0
20260505214612 13 313 11.3 27.4 0.00 0.00 0.00 36 1008.9
20260505214059 13 291 11.3 27.4 0.00 0.00 0.00 36 1008.9
20260505213558 13 288 14.5 27.4 0.00 0.00 0.00 35 1008.8
20260505213059 13 300 12.9 29.0 0.00 0.00 0.00 35 1008.9
20260505212559 13 257 11.3 29.0 0.00 0.00 0.00 34 1008.9
20260505212059 13 246 8.0 25.7 0.00 0.00 0.00 36 1008.9
20260505211645 13 314 6.4 22.5 0.00 0.00 0.00 36 1008.9
20260505211101 13 292 9.7 24.1 0.00 0.00 0.00 36 1008.9
20260505210558 13 303 11.3 24.1 0.00 0.00 0.00 35 1008.9
20260505210100 13 286 11.3 24.1 0.00 0.00 0.00 36 1008.9
20260505205559 13 302 11.3 24.1 0.00 0.00 0.00 35 1009.0
20260505205100 13 284 12.9 20.9 0.00 0.00 0.00 36 1009.0
20260505204615 13 282 11.3 27.4 0.00 0.00 0.00 35 1008.9
20260505204059 12 284 11.3 27.4 0.00 0.00 0.00 35 1008.9
20260505203601 13 259 12.9 25.7 0.00 0.00 0.00 35 1009.1
20260505203101 13 254 11.3 24.1 0.00 0.00 0.00 34 1009.2
20260505202601 13 298 9.7 22.5 0.00 0.00 0.00 32 1009.3
20260505202059 13 321 11.3 24.1 0.00 0.00 0.00 33 1009.2
20260505201559 13 289 11.3 24.1 0.00 0.00 0.00 32 1009.2
20260505201059 13 274 8.0 25.7 0.00 0.00 0.00 34 1009.1
20260505200559 13 300 11.3 25.7 0.00 0.00 0.00 34 1009.2
20260505195558 13 244 6.4 22.5 0.00 0.00 0.00 34 1009.2
20260505195059 13 283 9.7 27.4 0.00 0.00 0.00 36 1009.2
20260505194605 13 264 9.7 30.6 0.00 0.00 0.00 33 1009.3
20260505194059 13 254 11.3 30.6 0.00 0.00 0.00 30 1009.4
20260505193558 13 306 12.9 30.6 0.00 0.00 0.00 32 1009.3
20260505193102 13 271 9.7 35.4 0.00 0.00 0.00 31 1009.3
20260505192602 13 258 12.9 35.4 0.00 0.00 0.00 32 1009.4
20260505192059 13 302 12.9 29.0 0.00 0.00 0.00 31 1009.5
20260505191604 13 265 12.9 29.0 0.00 0.00 0.00 31 1009.6
20260505191058 13 286 8.0 24.1 0.00 0.00 0.00 35 1009.6
20260505190601 13 252 12.9 25.7 0.00 0.00 0.00 33 1009.6
20260505190114 13 248 6.4 27.4 0.00 0.00 0.00 35 1009.7
20260505185559 13 313 12.9 27.4 0.00 0.00 0.00 34 1009.5
20260505185059 13 311 14.5 27.4 0.00 0.00 0.00 33 1009.7
20260505184600 13 323 11.3 24.1 0.00 0.00 0.00 33 1009.5
20260505184059 13 259 11.3 24.1 0.00 0.00 0.00 34 1009.6
20260505183559 13 281 11.3 25.7 0.00 0.00 0.00 34 1009.6
20260505183101 13 306 14.5 25.7 0.00 0.00 0.00 34 1009.5
20260505182559 13 227 14.5 29.0 0.00 0.00 0.00 35 1009.4
20260505182058 13 269 14.5 29.0 0.00 0.00 0.00 34 1009.5
20260505181642 13 275 12.9 29.0 0.00 0.00 0.00 36 1009.5
20260505181059 13 341 14.5 29.0 0.00 0.00 0.00 35 1009.3
20260505180600 13 273 17.7 29.0 0.00 0.00 0.00 34 1009.3
20260505180108 13 262 11.3 22.5 0.00 0.00 0.00 38 1009.0
20260505175559 12 285 9.7 30.6 0.00 0.00 0.00 34 1009.0
20260505175059 12 265 17.7 30.6 0.00 0.00 0.00 35 1009.0
20260505174559 12 275 12.9 24.1 0.00 0.00 0.00 34 1008.9
20260505174059 12 274 9.7 33.8 0.00 0.00 0.00 37 1008.9
20260505173558 12 269 12.9 33.8 0.00 0.00 0.00 37 1008.9
20260505173101 12 267 11.3 33.8 0.00 0.00 0.00 35 1009.1
20260505172559 12 312 9.7 27.4 0.00 0.00 0.00 38 1009.0
20260505172058 12 257 9.7 27.4 0.00 0.00 0.00 36 1009.0
20260505171605 12 269 14.5 27.4 0.00 0.00 0.00 35 1009.0
20260505171059 12 329 11.3 27.4 0.00 0.00 0.00 36 1009.1
20260505170558 12 277 14.5 27.4 0.00 0.00 0.00 36 1009.2
20260505170100 12 280 9.7 25.7 0.00 0.00 0.00 39 1009.2
20260505165558 12 58 14.5 29.0 0.00 0.00 0.00 35 1009.2
20260505165058 12 294 12.9 29.0 0.00 0.00 0.00 38 1009.0
20260505164600 12 314 9.7 22.5 0.00 0.00 0.00 37 1009.0
20260505164059 12 288 9.7 24.1 0.00 0.00 0.00 39 1008.8
20260505163601 12 213 8.0 24.1 0.00 0.00 0.00 41 1008.7
20260505163101 12 267 11.3 24.1 0.00 0.00 0.00 38 1008.7
20260505162559 12 269 8.0 29.0 0.00 0.00 0.00 39 1008.9
20260505162100 12 302 11.3 29.0 0.00 0.00 0.00 38 1008.9
20260505161600 11 313 14.5 29.0 0.00 0.00 0.00 40 1008.8
20260505161101 11 279 8.0 24.1 0.00 0.00 0.00 40 1008.9
20260505160559 11 265 9.7 24.1 0.00 0.00 0.00 43 1008.8
20260505153100 10 302 11.3 20.9 0.00 0.00 0.00 42 1008.8
20260505152559 10 266 11.3 20.9 0.00 0.00 0.00 44 1008.9
20260505152058 10 284 9.7 22.5 0.00 0.00 0.00 44 1008.9
20260505151605 10 274 11.3 22.5 0.00 0.00 0.00 44 1008.9
20260505151106 10 247 8.0 20.9 0.00 0.00 0.00 45 1009.1
20260505150559 10 265 8.0 20.9 0.00 0.00 0.00 44 1009.2
20260505140559 9 238 8.0 19.3 0.00 0.00 0.00 51 1009.2
20260505140109 9 298 4.8 19.3 0.00 0.00 0.00 50 1009.3
20260505124600 8 266 4.8 12.9 0.00 0.00 0.00 52 1009.0
20260505124058 8 268 3.2 12.9 0.00 0.00 0.00 52 1009.0
20260505123558 8 283 3.2 9.7 0.00 0.00 0.00 52 1009.0
20260505123111 8 294 1.6 9.7 0.00 0.00 0.00 51 1009.1
20260505122559 8 279 3.2 12.9 0.00 0.00 0.00 51 1009.2
20260505122059 8 292 1.6 12.9 0.00 0.00 0.00 52 1009.2
20260505121559 8 284 6.4 12.9 0.00 0.00 0.00 51 1009.4
20260505121059 8 281 1.6 11.3 0.00 0.00 0.00 52 1009.3
20260505120602 8 0 1.6 11.3 0.00 0.00 0.00 53 1009.1
20260505120128 8 270 3.2 11.3 0.00 0.00 0.00 52 1009.3
20260505115559 8 288 3.2 14.5 0.00 0.00 0.00 52 1009.2
20260505115058 8 315 4.8 14.5 0.00 0.00 0.00 52 1009.3
20260505114600 8 306 6.4 14.5 0.00 0.00 0.00 53 1008.8
20260505114058 8 288 4.8 14.5 0.00 0.00 0.00 52 1008.6
20260505113600 8 297 8.0 14.5 0.00 0.00 0.00 54 1008.2
20260505113101 8 316 4.8 14.5 0.00 0.00 0.00 53 1007.8
20260505112559 8 304 3.2 14.5 0.00 0.00 0.00 53 1008.8
20260505112059 8 342 3.2 14.5 0.00 0.00 0.00 54 1007.7
20260505111603 8 22 3.2 12.9 0.00 0.00 0.00 54 1006.5
20260505111058 8 327 3.2 9.7 0.00 0.00 0.00 53 1007.0
20260505110558 8 327 1.6 8.0 0.00 0.00 0.00 53 1007.1
20260505110118 8 320 3.2 8.0 0.00 0.00 0.00 53 1007.4
20260505102103 8 328 8.0 19.3 0.00 0.00 0.00 51 1007.4
20260505101609 8 9 6.4 20.9 0.00 0.00 0.00 53 1007.0
20260505101058 8 13 8.0 20.9 0.00 0.00 0.00 53 1007.0
20260505100558 8 336 8.0 20.9 0.00 0.00 0.00 53 1006.7
20260505100100 8 328 6.4 17.7 0.00 0.00 0.00 53 1006.5
20260505095557 8 324 6.4 16.1 0.00 0.00 0.00 54 1006.5
20260505095100 8 17 4.8 16.1 0.00 0.00 0.00 54 1006.5
20260505094601 8 324 4.8 12.9 0.00 0.00 0.00 54 1006.6
20260505094057 8 304 3.2 14.5 0.00 0.00 0.00 54 1006.5
20260505093601 8 338 6.4 19.3 0.00 0.00 0.00 54 1006.4
20260505093059 8 326 6.4 19.3 0.00 0.00 0.00 54 1006.4
20260505092559 8 327 8.0 25.7 0.00 0.00 0.00 54 1006.5
20260505092059 8 342 12.9 25.7 0.00 0.00 0.00 54 1006.5
20260505091601 9 321 9.7 25.7 0.00 0.00 0.00 54 1006.5
20260505091058 9 331 8.0 25.7 0.00 0.00 0.00 54 1006.6
20260505090558 9 306 12.9 25.7 0.00 0.00 0.00 54 1006.1
20260505090100 9 310 11.3 22.5 0.00 0.00 0.00 54 1006.2
20260505085559 9 340 9.7 19.3 0.00 0.00 0.00 53 1006.0
20260505085059 9 327 9.7 17.7 0.00 0.00 0.00 52 1006.1
20260505084605 10 342 8.0 17.7 0.00 0.00 0.00 52 1005.9
20260505084057 10 315 9.7 20.9 0.00 0.00 0.00 51 1005.9
20260505083557 10 316 11.3 20.9 0.00 0.00 0.00 51 1005.5
20260505083112 10 338 8.0 20.9 0.00 0.00 0.00 51 1005.3
20260505082605 10 328 11.3 20.9 0.00 0.00 0.00 50 1005.3
20260505082103 10 327 8.0 17.7 0.00 0.00 0.00 50 1005.3
20260505081606 10 307 6.4 17.7 0.00 0.00 0.00 49 1005.3
20260505081059 10 314 4.8 17.7 0.00 0.00 0.00 49 1005.0
20260505080559 10 321 6.4 20.9 0.00 0.00 0.00 49 1005.0
20260505080110 11 318 11.3 20.9 0.00 0.00 0.00 48 1004.8
20260505075558 11 319 8.0 20.9 0.00 0.00 0.00 48 1004.6
20260505075102 11 327 6.4 25.7 0.00 0.00 0.00 47 1004.6
20260505074058 11 342 9.7 27.4 0.00 0.00 0.00 47 1004.2
20260505073559 11 338 12.9 37.0 0.00 0.00 0.00 46 1004.0
20260505073103 11 304 16.1 37.0 0.00 0.00 0.00 46 1003.8
20260505072558 12 61 14.5 41.8 0.00 0.00 0.00 46 1004.0
20260505072058 12 315 20.9 41.8 0.00 0.00 0.00 47 1004.1
20260505071559 12 338 16.1 29.0 0.00 0.00 0.00 48 1003.9
20260505071058 12 342 12.9 27.4 0.00 0.00 0.00 48 1003.6
20260505070558 12 342 11.3 27.4 0.00 0.00 0.00 48 1003.7
20260505070106 12 337 11.3 27.4 0.00 0.00 0.00 48 1003.7
20260505065558 12 317 6.4 16.1 0.00 0.00 0.00 47 1003.8
20260505065146 12 316 3.2 11.3 0.00 0.00 0.00 46 1003.5
20260505064653 12 301 1.6 14.5 0.00 0.00 0.00 46 1003.3
20260505064058 13 317 4.8 14.5 0.00 0.00 0.00 45 1003.3
20260505063558 13 338 6.4 16.1 0.00 0.00 0.00 44 1003.2
20260505063104 13 319 6.4 16.1 0.00 0.00 0.00 44 1003.3
20260505062558 13 5 4.8 17.7 0.00 0.00 0.00 44 1003.3
20260505062058 13 310 6.4 17.7 0.00 0.00 0.00 43 1003.3
20260505061600 13 305 8.0 24.1 0.00 0.00 0.00 43 1003.1
20260505061058 13 296 8.0 24.1 0.00 0.00 0.00 43 1003.2
20260505060606 13 321 8.0 24.1 0.00 0.00 0.00 43 1003.0
20260505060110 13 300 8.0 19.3 0.00 0.00 0.00 43 1003.0
20260505055558 13 314 8.0 19.3 0.00 0.00 0.00 42 1003.0
20260505055101 13 303 6.4 14.5 0.00 0.00 0.00 43 1003.0
20260505054602 14 331 3.2 16.1 0.00 0.00 0.00 42 1002.9
20260505054058 14 273 4.8 16.1 0.00 0.00 0.00 42 1003.0
20260505053557 14 281 4.8 16.1 0.00 0.00 0.00 42 1003.0
20260505053100 14 325 4.8 16.1 0.00 0.00 0.00 41 1003.1
20260505052558 14 319 4.8 16.1 0.00 0.00 0.00 41 1003.0
20260505052058 14 257 6.4 16.1 0.00 0.00 0.00 41 1002.9
20260505051610 14 290 4.8 16.1 0.00 0.00 0.00 40 1002.8
20260505051059 14 312 6.4 19.3 0.00 0.00 0.00 41 1002.6
20260505050558 15 282 4.8 19.3 0.00 0.00 0.00 41 1002.5
20260505041609 15 280 3.2 16.1 0.00 0.00 0.00 43 1002.1
20260505041101 16 243 4.8 16.1 0.00 0.00 0.00 43 1001.9
20260505040558 16 325 4.8 16.1 0.00 0.00 0.00 43 1001.9
20260505040107 16 252 4.8 16.1 0.00 0.00 0.00 43 1001.9
20260505035559 16 275 4.8 19.3 0.00 0.00 0.00 42 1001.7
20260505035058 16 303 6.4 19.3 0.00 0.00 0.00 42 1001.6
20260505034615 16 273 11.3 19.3 0.00 0.00 0.00 41 1001.4
20260505034058 17 271 6.4 19.3 0.00 0.00 0.00 41 1001.3
20260505033558 17 284 9.7 16.1 0.00 0.00 0.00 40 1001.2
20260505033102 17 297 6.4 16.1 0.00 0.00 0.00 40 1001.1
20260505032558 17 265 6.4 14.5 0.00 0.00 0.00 40 1001.0
20260505032057 17 286 8.0 17.7 0.00 0.00 0.00 39 1000.7
20260505031606 18 315 6.4 20.9 0.00 0.00 0.00 39 1000.9
20260505031058 18 325 8.0 20.9 0.00 0.00 0.00 38 1001.1
20260505030605 18 293 8.0 20.9 0.00 0.00 0.00 37 1001.2
20260505030115 18 259 11.3 25.7 0.00 0.00 0.00 37 1001.2
20260505025559 19 282 11.3 30.6 0.00 0.00 0.00 36 1001.1
20260505025102 19 299 11.3 30.6 0.00 0.00 0.00 37 1001.0
20260505024612 20 300 12.9 30.6 0.00 0.00 0.00 37 1000.8
20260505024058 20 292 11.3 25.7 0.00 0.00 0.00 38 1000.7
20260505023558 20 269 8.0 19.3 0.00 0.00 0.00 39 1000.6
20260505023101 20 285 8.0 25.7 0.00 0.00 0.00 39 1000.3
20260505022601 20 283 8.0 25.7 0.00 0.00 0.00 39 1000.4
20260505022058 20 310 11.3 30.6 0.00 0.00 0.00 39 1000.3
20260505021558 20 249 9.7 30.6 0.00 0.00 0.00 42 1000.2
20260505021057 20 275 17.7 30.6 0.00 0.00 0.00 43 1000.2
20260505020557 20 265 11.3 27.4 0.00 0.00 0.00 47 1000.1
20260505020108 21 243 11.3 25.7 0.00 0.00 0.00 48 999.8
20260505015558 21 249 14.5 25.7 0.00 0.00 0.00 48 999.6